Wind_Speed
119 119 119 120 120 120 120 120 119 119 118 117 117 116 114 113 112 111 109 108 106 104 103 101 99 97 95 94 92 90 89 87 85 83 82 80 78 77 76 75 73 72 71 70 69 68 66 65 64 63 61 60 59 58 57 56 55 54 53 52 51 51 50 49 48 48 47 46 45 43 42 41 40 39 38 37 37 36 35 34 34 33 32 31 30 30
120 120 120 120 120 120 120 120 119 118 118 117 116 114 113 112 111 109 107 106 104 103 101 99 97 95 94 92 90 89 87 85 84 82 80 78 77 75 74 73 72 71 70 68 67 66 65 63 62 61 60 59 58 57 56 55 54 53 52 51 50 49 49 48 47 46 45 44 43 42 41 40 39 38 37 36 36 35 34 33 32 32 31 30 29 29
120 120 121 121 120 120 120 120 119 118 117 116 114 113 112 110 109 107 105 104 102 100 99 97 95 93 92 90 88 87 85 84 82 80 78 77 75 74 72 71 70 69 68 67 66 64 63 62 61 59 58 57 56 55 54 53 52 51 51 50 49 48 48 47 46 45 44 43 42 41 39 38 37 36 36 35 34 34 33 32 31 30 30 29 28 28
121 121 121 121 121 120 120 119 118 117 116 114 113 111 110 108 106 105 103 101 100 98 97 95 93 91 90 88 86 85 83 82 80 78 77 75 74 72 71 70 69 68 66 65 64 63 61 60 59 58 57 56 55 54 53 52 51 50 49 49 48 47 46 46 45 44 43 42 41 39 38 37 36 35 35 34 33 33 32 31 30 30 29 28 27 27
121 121 121 121 120 120 119 118 117 116 114 112 111 109 107 106 104 102 101 99 98 96 95 93 91 89 88 86 84 83 81 80 78 77 75 73 72 71 69 68 67 66 65 64 62 61 60 59 57 56 55 54 53 52 51 50 50 49 48 47 47 46 45 44 44 43 42 40 39 38 37 36 35 34 34 33 33 32 31 30 29 29 28 27 27 26
121 121 121 120 120 119 118 117 115 113 112 110 108 107 105 103 101 100 98 97 95 94 92 91 89 87 86 84 82 81 79 78 76 75 73 72 70 69 68 67 66 64 63 62 61 59 58 57 56 55 54 53 52 51 50 49 48 47 47 46 45 45 44 43 42 41 40 39 38 37 36 35 34 33 33 32 32 31 30 29 28 28 27 27 26 25
121 121 120 119 118 117 116 114 113 111 109 107 106 104 102 101 99 97 96 94 93 92 90 88 87 85 84 82 80 79 77 76 75 73 72 70 69 68 66 65 64 63 61 60 59 58 57 55 54 53 52 51 50 49 48 48 47 46 46 45 44 43 43 42 41 40 39 38 37 36 35 34 33 33 32 31 31 30 29 29 28 27 27 26 25 25
121 120 119 118 116 115 114 112 110 108 106 104 103 101 100 98 97 95 94 92 91 89 88 86 85 83 82 80 78 77 76 74 73 72 70 69 67 66 65 64 62 61 60 58 57 56 55 54 53 52 51 50 49 48 47 46 46 45 44 44 43 42 41 41 40 39 38 37 36 35 34 33 32 32 31 31 30 29 29 28 27 27 26 26 25 25
119 118 117 115 114 112 111 109 107 106 103 102 100 99 97 96 95 93 92 90 89 87 85 84 83 81 80 78 77 75 74 73 71 70 69 67 66 65 63 62 61 59 58 57 56 54 53 52 51 50 49 48 47 46 45 45 44 43 43 42 42 41 40 40 39 38 37 36 35 34 33 32 32 31 31 30 30 29 28 28 27 26 26 25 25 25
117 116 114 113 111 109 108 106 105 103 101 99 98 96 95 94 92 91 90 88 87 85 84 82 81 80 78 77 75 74 72 71 70 68 67 66 64 63 61 60 59 57 56 55 54 53 52 51 49 48 47 46 46 45 44 43 43 42 42 41 41 40 39 39 38 37 36 35 34 33 32 32 31 31 30 30 29 28 28 27 27 26 26 25 25 25
115 113 111 110 108 107 105 103 102 100 99 97 96 95 93 91 90 89 88 87 85 83 82 81 79 78 77 75 74 72 71 69 68 67 65 64 63 61 59 58 57 55 54 53 52 51 50 49 48 47 46 45 44 43 43 42 42 41 41 40 40 39 38 38 37 36 35 34 33 33 32 31 31 30 30 29 29 28 28 27 27 26 26 25 25 25
112 110 109 107 106 104 103 101 99 98 96 95 94 93 91 90 88 87 86 85 84 82 81 79 78 76 75 74 72 71 69 68 66 65 63 62 61 59 57 56 55 53 52 51 50 49 48 47 46 45 44 43 43 42 41 41 40 40 40 39 38 38 37 37 36 35 34 34 33 32 32 31 31 30 30 29 29 28 28 27 27 26 26 25 25 25
109 108 106 104 103 102 100 99 97 96 95 93 92 91 89 88 87 85 84 83 82 81 79 78 76 75 73 72 70 69 67 66 64 63 61 60 59 57 55 54 53 51 50 49 48 47 46 45 44 43 43 42 41 41 40 40 39 39 38 38 37 37 36 36 35 35 34 33 33 32 31 31 30 30 29 29 28 28 28 27 27 26 26 26 25 25
107 105 104 102 101 99 98 97 95 94 93 92 90 89 88 86 85 84 83 82 80 79 77 76 75 73 72 70 68 66 65 63 62 61 59 58 56 55 53 52 50 49 48 47 46 45 44 43 42 42 41 41 40 39 39 39 38 38 37 37 37 36 36 35 35 34 33 33 32 32 31 31 30 30 29 29 28 28 28 27 27 27 26 26 26 26
104 103 101 100 99 97 96 95 93 92 91 90 88 87 86 85 84 82 81 80 79 77 76 74 73 71 69 68 66 64 62 61 60 58 57 56 54 52 51 49 48 47 46 45 44 43 43 42 41 40 40 39 39 38 38 37 37 37 36 36 36 35 35 35 34 34 33 33 32 32 31 31 30 30 29 29 28 28 28 28 27 27 27 27 26 26
102 100 99 98 96 95 94 93 92 91 90 88 87 85 84 83 82 81 79 78 77 75 74 72 70 69 67 66 64 62 60 59 57 56 55 53 52 50 49 47 46 45 44 43 42 42 41 40 40 39 38 38 37 37 37 36 36 36 36 35 35 35 34 34 34 33 33 32 32 32 31 31 30 30 29 29 29 28 28 28 28 27 27 27 27 27
100 98 97 96 95 94 93 91 90 89 88 86 85 84 82 81 80 78 77 76 74 73 71 70 68 66 65 63 61 59 58 56 55 54 52 51 49 48 46 45 44 43 42 42 41 40 39 39 38 38 37 37 36 36 36 35 35 35 35 35 34 34 34 34 33 33 33 32 32 32 31 31 30 30 29 29 29 29 28 28 28 28 28 28 27 27
97 96 95 94 93 92 91 90 89 87 86 85 83 82 81 79 77 76 74 73 72 70 68 67 65 63 62 60 59 57 55 53 52 51 50 49 47 46 44 43 42 41 41 40 39 39 38 37 37 36 36 36 35 35 35 34 34 34 34 34 34 34 33 33 33 33 33 32 32 32 31 31 30 30 30 29 29 29 29 29 29 28 28 28 28 28
95 94 93 92 91 90 89 88 87 85 84 83 81 80 78 77 75 73 72 70 69 67 65 64 62 61 59 57 56 55 53 51 50 49 47 46 45 43 42 41 40 39 39 39 38 37 37 36 36 35 35 35 34 34 34 34 34 34 33 33 33 33 33 33 33 33 32 32 32 32 31 31 31 30 30 30 29 29 29 29 29 29 29 29 29 29
94 93 91 90 89 88 87 86 85 83 82 80 79 77 75 74 72 70 69 67 65 64 62 61 59 58 56 55 53 52 50 49 47 46 45 44 42 41 40 39 38 38 38 37 37 36 36 35 35 35 34 34 34 33 33 33 33 33 33 33 33 33 33 33 33 33 32 32 32 32 31 31 31 30 30 30 30 30 30 30 30 29 29 29 29 29
92 91 90 88 87 85 84 83 82 80 79 77 76 74 72 70 69 67 65 64 62 61 59 58 56 55 54 52 50 49 48 46 45 44 43 41 40 39 38 37 37 37 36 36 36 35 35 34 34 34 34 33 33 33 33 33 33 33 33 33 33 33 33 33 33 32 32 32 32 32 32 31 31 31 31 30 30 30 30 30 30 30 30 30 30 30
89 88 87 86 84 82 81 80 79 77 76 74 72 71 69 67 65 64 62 61 59 58 57 55 54 52 51 49 48 47 45 44 43 41 41 39 39 38 37 36 36 36 35 35 35 34 34 34 33 33 33 33 33 32 32 32 32 32 32 33 33 33 33 32 32 32 32 32 32 32 32 32 32 31 31 31 31 31 31 31 31 30 30 30 30 30
87 85 84 82 81 79 78 76 75 74 72 71 69 67 66 64 62 60 59 58 57 55 54 53 51 50 48 47 46 44 43 42 41 40 39 38 37 36 36 35 35 34 34 34 34 34 33 33 33 33 33 32 32 32 32 32 32 32 32 32 32 32 32 32 32 32 32 32 32 32 32 32 32 32 32 32 32 31 31 31 31 31 31 31 31 31
84 82 80 79 77 75 74 73 72 70 69 68 66 64 62 60 59 58 56 55 54 53 51 50 49 48 46 45 43 42 41 40 39 38 37 36 36 35 35 34 34 33 33 33 33 33 33 33 33 33 33 32 32 32 32 32 32 32 32 32 32 32 32 32 32 32 32 32 32 32 32 32 32 32 32 32 32 32 32 32 32 31 31 31 31 32
80 78 77 75 73 72 70 69 68 67 66 64 62 60 59 57 56 55 54 53 51 50 49 48 47 45 44 43 41 40 39 38 37 36 35 35 35 34 34 33 33 33 33 33 33 33 33 33 33 33 33 32 32 32 32 32 32 32 32 32 32 32 32 32 32 32 32 32 32 32 32 32 32 33 33 33 33 33 32 32 32 32 32 32 32 32
76 75 73 71 70 68 67 66 65 64 63 61 59 57 55 54 53 52 51 50 49 48 47 46 45 43 42 41 39 38 37 36 35 35 34 34 34 34 33 33 32 32 33 33 33 33 33 33 33 33 33 33 32 32 32 32 32 32 32 32 32 32 32 32 32 32 32 32 32 32 32 32 33 33 33 33 33 33 33 33 33 33 33 33 33 33
73 71 70 68 67 65 64 63 62 61 60 58 56 54 53 52 51 50 49 48 47 46 45 44 43 41 40 39 38 37 36 35 34 34 34 33 33 33 33 33 32 32 32 33 33 33 33 33 34 33 33 33 33 32 32 32 32 32 32 32 32 32 32 32 32 32 32 32 32 32 32 32 33 33 33 33 33 33 34 33 33 33 33 33 33 33
70 68 66 65 63 62 61 60 59 58 57 55 54 52 50 49 48 48 47 46 45 44 43 42 41 40 39 38 37 36 35 34 34 34 33 33 33 33 33 33 32 32 33 33 33 34 34 34 34 34 34 33 33 33 33 33 32 32 32 32 32 32 32 32 32 32 32 32 32 33 33 33 33 33 33 33 34 34 34 34 34 34 34 34 34 34
66 65 63 62 60 59 58 57 56 56 54 53 52 50 49 47 47 46 45 44 43 42 42 41 40 39 38 37 36 35 34 34 34 34 33 33 33 33 33 33 33 33 33 33 34 34 34 34 34 34 34 34 34 33 33 33 33 33 33 33 33 33 33 33 33 33 33 33 33 33 33 33 33 33 33 33 33 34 34 34 34 34 34 35 35 35
63 62 61 59 58 57 56 55 54 53 52 51 50 48 47 46 45 45 44 43 42 41 40 40 39 38 37 36 35 35 34 34 34 34 33 33 33 33 33 33 33 33 33 34 34 34 35 35 35 34 34 34 34 34 34 34 34 34 33 33 33 33 33 33 33 33 34 34 34 34 34 34 34 33 33 34 34 34 34 34 34 35 35 35 35 35
61 59 58 57 56 54 53 52 52 51 50 49 48 47 46 45 44 43 43 42 41 40 39 39 38 37 36 35 35 35 34 34 34 34 33 33 33 34 33 33 34 34 34 34 34 35 35 35 35 35 35 35 35 35 34 34 34 34 34 34 34 34 34 34 34 34 34 34 35 35 35 34 34 34 34 34 34 34 34 34 35 35 35 35 36 36
59 57 56 55 54 53 51 51 50 49 48 47 47 46 45 44 43 43 42 41 40 39 39 38 37 37 36 35 35 35 35 35 34 34 33 33 34 34 34 34 34 34 35 35 35 35 36 36 36 36 35 35 35 35 35 35 35 35 35 35 35 35 35 35 35 35 35 35 36 36 36 35 35 35 35 34 34 34 34 35 35 35 35 36 36 36
57 55 54 53 52 51 50 49 48 47 47 46 45 45 44 43 42 42 41 40 39 39 38 37 37 36 36 35 35 35 35 35 34 34 33 33 34 34 34 34 35 35 35 35 36 36 36 36 36 36 36 36 36 36 36 36 36 36 36 36 36 36 36 36 36 36 36 36 37 37 37 36 36 36 36 35 35 35 35 35 35 35 36 36 36 37
55 54 52 51 50 49 48 47 46 46 45 45 44 44 43 42 42 41 40 40 39 38 38 38 37 37 36 36 35 35 35 35 34 34 33 34 34 35 35 35 35 35 36 36 36 36 37 37 37 37 37 37 37 37 37 37 37 36 36 36 37 37 37 37 37 37 38 38 38 38 38 37 37 37 36 36 36 36 36 35 35 36 36 36 37 37
53 52 51 50 49 48 47 46 45 44 44 43 43 42 42 42 41 40 40 39 39 38 38 38 37 37 36 36 35 35 35 35 35 34 34 34 35 35 35 36 36 36 36 36 37 37 37 37 38 38 38 38 38 38 38 37 37 37 37 37 37 37 38 38 38 38 39 39 39 39 39 38 38 38 38 37 37 37 36 36 36 36 36 37 37 37
51 50 49 48 47 46 46 45 44 43 42 42 42 41 41 41 40 40 40 39 39 38 38 38 37 37 36 36 36 36 36 35 35 35 35 35 35 36 36 36 36 36 37 37 37 38 38 38 39 39 39 39 39 39 39 38 38 38 38 38 38 38 38 39 39 39 40 40 40 40 39 39 39 39 39 38 38 37 37 37 37 37 37 37 37 38
49 49 48 47 46 45 44 44 43 42 41 41 41 41 40 40 40 39 39 39 38 38 38 38 37 37 36 36 36 36 36 36 36 35 35 36 36 37 37 37 37 37 37 38 38 38 39 39 40 40 40 40 40 40 40 40 39 39 39 39 39 39 39 40 40 40 40 41 40 40 40 40 40 40 40 39 39 38 38 38 38 38 38 38 38 38
48 47 46 46 45 44 43 43 42 41 40 40 40 40 39 39 39 39 39 38 38 38 38 37 37 37 36 36 36 36 36 36 36 36 36 37 37 37 37 38 38 38 38 38 39 39 40 40 41 41 41 41 41 41 41 41 40 40 40 40 40 40 40 41 41 41 41 41 41 41 41 41 41 41 40 40 40 39 39 39 38 38 38 39 39 39
46 46 45 44 44 43 43 42 41 40 40 39 39 39 39 39 38 38 38 38 38 37 37 37 37 37 37 37 37 37 37 37 37 37 37 37 38 38 38 38 39 39 39 39 40 40 40 41 41 42 42 42 42 42 42 41 41 41 41 41 41 41 41 42 42 42 42 42 42 42 42 42 41 41 41 41 41 40 40 40 39 39 39 40 40 40
45 44 44 43 43 42 42 41 40 40 39 38 38 38 38 38 37 37 37 37 37 37 37 37 37 37 37 37 37 38 38 38 38 38 38 38 38 38 39 39 39 40 40 40 41 41 41 42 42 43 43 43 43 43 43 43 42 42 42 42 42 42 42 43 43 43 43 43 43 43 42 42 42 42 42 42 41 41 41 40 40 40 40 40 40 41
44 44 43 43 42 42 41 41 40 39 39 38 37 37 37 37 37 37 37 36 36 36 36 37 37 37 37 38 38 38 38 38 39 39 39 39 39 39 40 40 40 41 41 41 42 42 42 43 43 43 44 44 44 44 44 44 43 43 43 43 43 43 44 44 44 44 44 44 44 43 43 43 43 43 43 42 42 42 41 41 41 41 41 41 41 41
44 43 42 42 41 41 41 40 40 39 39 38 37 37 36 36 36 36 36 36 36 36 37 37 37 38 38 38 39 39 39 39 39 39 39 40 40 40 41 41 41 42 42 42 43 43 43 44 44 44 44 44 45 45 45 45 44 44 44 44 44 44 45 45 45 45 45 45 44 44 44 44 44 44 43 43 43 43 42 42 42 42 42 42 42 42
44 43 42 42 41 41 40 40 39 39 38 38 37 37 36 36 36 36 36 36 36 37 37 37 38 38 39 39 39 40 40 40 40 40 40 41 41 41 42 42 43 43 43 43 44 44 44 44 45 45 45 45 45 46 46 46 45 45 45 45 45 45 46 46 46 46 46 46 45 45 45 45 45 44 44 44 44 43 43 43 43 43 42 42 42 42
44 43 42 41 41 41 40 39 39 39 38 38 37 37 37 37 36 36 36 37 37 37 37 38 38 39 39 40 40 40 40 41 41 41 41 42 42 43 43 43 44 44 44 44 45 45 45 45 46 46 46 46 46 47 47 46 46 46 46 46 46 46 47 47 47 47 47 46 46 46 46 45 45 45 45 44 44 44 44 44 44 43 43 43 43 43
44 43 42 42 41 40 40 39 39 39 38 38 38 37 37 37 37 37 37 37 38 38 38 38 39 39 40 40 40 41 41 42 42 42 43 43 43 44 44 44 45 45 45 45 46 46 46 46 47 47 47 47 48 48 48 47 47 47 47 47 47 48 48 48 48 48 48 47 47 47 46 46 46 46 45 45 45 45 45 45 45 44 44 44 43 43
44 44 43 42 42 41 40 40 39 39 38 38 38 38 38 37 37 37 38 38 38 39 39 39 39 40 41 41 41 42 42 43 43 44 44 44 45 45 45 45 46 46 46 46 47 47 47 47 48 48 48 49 49 49 48 48 48 48 48 48 49 49 49 49 49 49 48 48 48 48 47 47 47 46 46 46 46 46 46 45 45 45 45 44 44 43
45 44 44 43 43 42 41 40 39 39 39 38 38 38 38 38 38 38 38 39 39 39 39 40 40 41 41 42 42 43 43 44 45 45 45 46 46 46 46 46 46 47 47 47 47 48 48 48 49 49 50 50 50 50 50 49 49 49 49 49 50 50 50 50 50 50 49 49 49 49 48 48 47 47 47 47 46 46 46 46 46 46 45 45 44 44
45 45 45 44 44 43 42 41 40 40 39 39 39 39 39 39 39 39 39 39 39 40 40 41 41 42 42 43 43 44 45 45 46 47 47 47 47 47 47 47 47 48 48 48 48 49 49 50 50 51 51 51 52 52 51 50 50 50 50 51 51 51 52 52 51 51 50 50 50 49 49 49 48 48 48 47 47 47 47 47 46 46 46 45 45 45
45 45 45 45 45 44 44 43 42 41 41 40 40 40 40 40 40 40 40 40 40 41 41 42 42 43 44 44 45 45 46 47 47 48 48 48 48 48 48 48 48 49 49 49 50 50 51 51 52 52 52 52 53 53 52 52 51 51 51 52 52 53 53 52 52 51 51 51 50 50 50 49 49 49 49 48 48 48 48 47 47 46 46 46 45 45
47 46 46 46 46 46 45 45 44 44 43 42 42 42 42 42 42 42 42 42 42 42 43 43 44 44 45 46 46 47 47 48 49 49 49 49 49 49 49 50 50 50 51 51 52 52 52 53 53 54 53 53 53 53 54 53 53 53 53 53 53 54 54 53 53 52 52 51 51 51 50 50 50 50 49 49 49 49 48 48 47 47 46 46 46 46
48 48 47 47 47 47 47 46 46 46 46 45 45 44 44 44 44 44 44 44 44 44 45 45 46 46 47 47 48 48 49 49 50 50 50 50 50 51 51 51 51 52 52 53 53 54 54 55 55 55 55 55 54 54 54 55 55 55 55 55 55 55 54 54 54 53 52 52 51 51 51 51 50 50 50 50 50 50 49 48 48 47 46 46 46 46
Wind_Direction
294 294 294 295 295 295 296 296 296 297 297 298 298 298 299 299 299 299 300 300 300 300 300 300 301 301 301 301 301 301 301 301 301 301 301 301 300 300 300 299 299 299 298 298 298 298 298 298 298 298 298 298 298 298 298 299 299 299 299 299 299 299 299 299 299 299 299 299 299 299 299 299 299 299 299 299 299 299 299 299 299 299 300 300 300 301
294 294 295 295 295 295 296 296 297 297 297 298 298 298 299 299 299 299 299 300 300 300 300 300 300 301 301 301 301 301 301 301 300 300 300 300 300 299 299 299 298 298 298 297 297 297 297 297 297 297 297 297 297 297 298 298 298 298 298 298 298 298 298 298 298 298 298 298 299 299 298 298 298 298 298 298 298 298 298 298 298 299 299 299 300 301
294 294 295 295 295 296 296 296 297 297 297 298 298 298 298 299 299 299 299 299 299 299 300 300 300 300 300 300 300 300 300 300 300 300 300 299 299 299 298 298 298 297 297 297 297 297 297 296 296 296 296 296 296 297 297 297 297 297 297 297 297 297 297 298 297 297 298 298 298 298 298 298 297 297 297 297 297 297 297 297 297 298 298 299 299 300
294 295 295 295 295 296 296 296 297 297 297 297 298 298 298 298 298 299 299 299 299 299 299 299 299 299 300 299 300 299 299 299 299 299 299 299 298 298 298 297 297 296 296 296 296 296 296 296 296 295 296 296 296 296 296 296 296 296 296 296 296 297 297 297 297 297 297 297 297 297 297 297 297 296 296 296 296 296 296 296 297 297 298 298 299 299
294 295 295 295 295 296 296 296 296 297 297 297 297 298 298 298 298 298 298 298 298 298 298 299 299 299 299 299 299 299 299 298 298 298 298 298 297 297 297 296 296 295 295 295 295 295 295 295 295 295 295 295 295 295 295 295 295 295 295 295 295 296 296 296 296 296 296 296 296 296 296 296 296 295 295 295 295 295 295 295 296 296 297 298 298 299
294 295 295 295 295 295 296 296 296 297 297 297 297 297 297 297 297 297 297 298 298 298 298 298 298 298 298 298 298 298 298 298 297 297 297 297 296 296 296 295 295 295 294 294 294 294 294 294 294 294 294 294 294 294 294 294 294 294 295 295 295 295 295 295 295 295 295 295 295 295 295 295 294 294 294 293 294 294 294 294 295 295 296 297 297 298
295 295 295 295 295 295 295 296 296 296 296 297 297 297 297 297 297 297 297 297 297 297 297 297 297 297 297 297 297 297 297 297 297 296 296 296 295 295 294 294 294 294 293 293 293 293 293 293 293 293 293 293 293 293 293 293 293 294 294 294 294 294 294 294 294 294 294 294 294 294 294 294 293 293 292 292 292 292 292 293 294 294 295 296 296 297
294 294 295 295 295 295 295 295 296 296 296 296 296 296 296 296 296 296 296 296 296 296 297 297 297 296 296 296 296 296 296 296 296 295 295 295 294 294 293 293 293 293 292 292 292 292 292 292 292 292 292 292 292 292 292 292 292 293 293 293 293 293 293 293 293 293 293 293 293 293 293 292 292 291 291 291 291 291 291 292 292 293 294 295 295 296
294 294 294 294 295 295 295 295 295 296 296 296 295 295 296 296 296 296 296 296 296 296 296 296 296 296 296 296 296 295 295 295 295 294 294 293 293 293 292 292 292 292 291 291 291 291 291 291 291 291 291 291 291 291 291 291 292 292 292 292 292 292 292 292 292 293 292 292 292 292 292 291 290 290 290 289 289 290 290 291 291 292 293 293 294 296
294 294 294 294 294 295 295 295 295 295 295 295 295 295 295 295 295 295 295 295 295 295 295 295 295 295 295 295 295 294 294 294 294 293 293 292 292 292 291 291 291 290 290 290 290 290 290 290 290 290 290 290 290 290 290 290 291 291 291 291 291 291 291 291 292 292 292 292 291 291 290 290 289 288 288 288 288 288 289 289 290 291 291 292 293 294
294 294 294 294 294 294 294 294 295 295 295 295 295 295 295 295 295 295 295 295 295 295 294 294 294 294 294 294 294 294 293 293 292 292 292 291 291 291 290 290 290 289 289 289 289 289 289 289 289 289 289 289 289 289 289 289 290 290 290 290 290 291 291 291 291 291 291 291 290 290 289 288 288 287 287 287 287 287 287 288 289 289 290 291 292 293
294 294 294 294 294 294 294 294 294 294 294 294 294 294 294 294 294 294 294 294 294 294 294 294 293 293 293 293 293 293 292 292 291 291 290 290 290 289 289 289 288 288 288 288 288 288 288 288 288 288 288 288 288 288 288 289 289 289 289 289 290 290 290 290 290 290 290 289 289 288 287 287 286 286 285 285 285 285 286 286 287 288 289 290 291 291
293 293 293 294 294 294 294 294 294 294 294 294 294 294 294 294 294 293 293 293 293 293 293 293 293 292 292 292 292 291 291 291 290 290 289 289 289 288 288 288 287 287 287 287 286 286 286 286 286 286 286 287 287 287 288 288 288 288 289 289 289 289 289 289 289 289 288 288 288 287 286 285 285 284 284 284 284 284 284 285 286 286 287 288 289 290
293 293 293 293 293 293 293 293 293 293 293 293 293 293 293 293 293 293 292 292 292 292 292 292 292 292 291 291 291 290 290 289 289 289 288 288 288 287 287 286 286 286 286 285 285 285 285 285 285 285 285 286 286 286 287 287 287 288 288 288 288 288 288 288 288 288 287 287 286 285 285 284 283 283 282 282 282 283 283 284 285 285 286 287 288 289
293 293 293 293 293 293 293 293 293 292 293 293 293 293 292 292 292 292 292 292 292 292 291 291 291 291 291 290 290 289 289 288 288 287 287 287 286 286 286 285 285 285 284 284 284 284 284 284 284 284 284 285 285 286 286 286 287 287 287 288 288 288 288 287 287 287 286 286 285 284 283 282 282 281 282 281 281 282 282 283 284 284 285 286 287 288
292 292 292 292 292 292 292 292 292 292 292 292 292 292 292 292 291 291 291 291 291 291 291 290 290 290 290 289 289 288 288 287 287 286 286 285 285 285 284 284 283 283 283 283 282 282 282 282 283 283 283 284 284 285 285 286 286 286 287 287 287 287 287 287 286 286 285 284 284 283 282 281 281 281 280 280 281 281 281 282 283 283 284 285 286 287
292 292 292 292 292 292 292 292 292 292 292 292 291 291 291 291 291 291 290 290 290 290 290 290 289 289 289 288 288 287 286 286 285 285 284 284 284 284 283 282 282 282 281 281 281 281 281 281 281 282 282 283 283 284 284 285 286 286 286 287 286 287 286 286 286 285 284 283 283 282 281 280 280 280 279 279 279 280 280 281 281 282 283 284 284 285
292 292 292 291 291 292 292 292 291 291 291 291 291 291 291 291 290 290 290 290 289 289 289 289 288 288 287 287 286 286 285 284 284 283 283 283 282 282 282 281 280 280 280 280 280 280 280 280 280 281 281 282 283 283 284 285 285 286 286 286 286 286 286 285 285 284 283 283 282 281 280 279 279 278 278 278 278 279 279 279 280 281 281 282 283 284
291 291 291 291 291 291 291 291 291 291 291 291 291 290 290 290 290 289 289 289 289 288 288 288 287 287 286 285 285 285 284 283 283 282 282 281 281 281 280 279 279 278 278 278 278 278 278 279 279 280 281 281 282 283 284 284 285 285 286 286 286 285 285 285 284 283 282 282 281 280 279 278 278 277 277 277 277 278 278 278 279 279 280 281 282 282
291 291 291 291 291 291 291 291 291 290 290 290 290 290 290 289 289 289 288 288 288 287 287 286 286 285 285 284 284 283 283 282 281 281 280 280 279 279 278 277 277 277 277 277 277 277 277 278 278 279 280 281 282 283 283 284 285 285 286 285 285 285 285 284 283 283 282 281 280 279 279 278 277 277 277 276 276 277 277 277 278 278 279 279 280 281
291 291 291 291 291 291 291 290 290 290 290 290 289 289 289 289 288 288 288 287 287 286 286 285 285 284 284 283 283 282 281 281 280 279 279 278 278 277 276 276 275 275 275 275 275 276 276 277 278 279 279 280 281 282 283 284 285 285 285 285 285 285 284 283 283 282 282 281 280 279 278 278 277 276 276 276 276 276 276 276 277 277 278 278 279 280
291 291 291 291 291 290 290 290 290 289 289 289 289 288 288 288 287 287 286 286 285 285 284 284 283 283 283 282 281 281 280 279 278 278 277 276 276 275 275 274 274 274 273 274 274 275 275 276 277 278 279 280 281 282 283 284 284 285 285 285 284 284 284 283 282 282 281 281 280 279 278 277 277 276 276 275 275 275 275 276 276 276 277 278 278 279
291 291 291 291 290 290 290 289 289 289 288 288 288 288 287 287 286 286 285 284 284 284 283 283 282 282 281 280 280 279 278 277 276 276 275 274 274 273 273 273 272 272 272 272 273 274 275 275 276 277 278 279 280 281 282 283 284 284 284 284 284 283 283 282 282 282 281 281 280 279 278 278 277 276 276 275 275 275 275 275 275 276 276 277 277 278
291 291 290 290 290 289 289 288 288 288 287 287 287 287 287 286 285 285 284 283 283 282 282 281 281 280 279 279 278 277 276 275 275 274 273 273 272 272 272 271 271 270 271 271 272 273 274 275 276 277 278 279 280 281 282 283 283 284 284 284 284 283 283 282 282 281 281 281 280 279 279 278 277 276 276 275 275 275 275 275 275 276 276 276 277 278
290 290 290 289 289 288 288 287 287 287 286 286 286 286 286 285 284 283 283 282 282 281 280 280 279 278 278 277 276 275 274 273 272 272 271 271 271 270 270 270 269 269 269 270 271 272 273 274 276 277 278 278 279 280 281 282 283 284 284 284 283 283 282 282 282 281 281 281 280 280 279 278 278 277 276 276 275 275 275 275 275 275 276 276 277 277
290 290 289 289 288 288 287 287 286 286 285 285 285 284 284 283 283 282 281 281 280 279 279 278 277 277 276 275 274 273 272 271 270 270 269 269 269 269 268 268 268 268 268 269 270 272 273 274 275 276 277 278 279 280 281 282 283 284 284 284 284 283 283 282 282 281 281 281 280 280 279 279 278 278 277 276 276 276 275 275 275 275 276 276 277 277
289 289 288 288 288 287 286 286 285 285 285 284 284 283 282 282 281 280 280 279 278 278 277 276 276 275 274 273 272 271 270 269 269 268 268 267 267 267 266 267 266 266 267 268 269 271 272 273 274 276 277 278 279 280 281 282 283 283 284 284 284 284 283 283 282 282 281 281 281 280 280 280 279 278 278 277 277 276 276 276 276 276 276 276 277 277
289 288 288 287 287 286 285 285 284 284 284 283 283 282 281 280 279 278 278 277 276 276 275 274 274 273 272 271 270 269 269 268 267 267 266 266 265 265 265 265 265 265 266 267 269 270 271 272 274 275 276 277 279 280 281 282 283 284 284 285 285 284 284 283 283 282 282 281 281 280 280 280 280 279 279 278 278 277 277 276 276 276 276 276 277 277
288 288 287 287 286 285 285 284 283 283 283 282 282 281 280 279 278 277 276 276 275 274 273 273 272 271 271 270 269 268 267 266 266 266 265 264 263 263 264 264 264 264 265 266 268 269 270 271 273 274 275 277 278 280 281 282 283 284 285 285 285 285 285 284 284 283 282 281 281 280 280 280 280 280 279 279 278 278 277 277 277 276 276 277 277 277
288 287 287 286 285 285 284 283 282 282 282 281 280 280 279 277 276 275 275 274 273 273 272 272 271 270 269 269 268 267 266 265 265 264 264 263 262 262 263 263 263 263 264 266 267 268 270 271 272 273 275 277 278 280 281 282 283 285 285 286 286 286 286 286 285 284 283 282 281 280 280 280 280 280 280 280 279 279 278 278 278 277 277 277 277 277
287 287 286 285 284 284 283 282 281 281 280 280 279 278 277 276 275 275 274 273 272 272 271 270 270 269 268 268 267 266 265 264 264 263 263 261 261 261 261 261 262 263 264 265 266 268 270 271 272 273 275 276 278 280 281 282 284 285 286 287 287 288 287 287 286 285 284 283 282 281 280 280 280 280 280 280 280 280 279 279 279 278 278 278 278 278
287 286 285 285 284 283 282 281 280 279 279 278 278 277 276 275 275 274 273 272 271 271 270 269 269 268 267 266 266 265 264 264 263 262 261 260 260 260 260 260 261 263 264 265 266 268 269 271 272 274 275 276 278 280 281 283 284 285 286 287 288 289 289 288 288 287 286 284 283 282 281 280 280 280 280 280 281 281 280 280 280 280 279 279 279 279
286 285 285 284 283 282 281 280 279 278 277 277 276 276 275 274 273 273 272 271 270 269 269 268 267 267 266 265 264 263 263 262 261 261 259 258 258 258 259 259 260 262 263 265 266 267 269 271 272 274 275 276 278 279 281 282 284 285 287 288 289 289 290 289 289 288 287 286 284 283 281 281 280 280 280 280 281 281 281 281 281 281 280 280 280 280
286 285 284 283 282 281 280 279 278 277 276 276 275 274 274 273 272 271 271 270 269 268 267 266 266 265 264 264 263 262 261 260 259 259 258 257 257 257 258 259 259 261 263 264 266 267 269 270 272 274 275 276 278 279 281 282 284 286 287 288 289 290 290 290 290 289 288 287 285 284 282 281 280 280 280 280 281 281 281 282 282 282 281 281 281 281
285 284 283 282 281 280 279 278 277 276 275 274 274 273 272 272 271 270 269 268 268 267 266 265 264 263 263 262 261 260 259 258 258 257 256 255 256 256 257 258 259 261 262 264 266 267 269 270 272 273 275 277 278 279 281 282 284 286 287 288 289 290 290 290 290 290 288 287 286 284 283 281 280 280 279 280 280 281 281 282 282 282 282 282 282 281
284 284 283 281 280 279 278 277 276 275 274 273 273 272 271 271 270 269 268 267 266 265 264 264 263 262 261 260 259 258 257 257 256 255 255 255 255 256 256 258 259 261 262 264 265 267 269 270 272 273 275 276 278 279 281 282 284 285 287 288 289 290 290 290 290 290 289 288 286 285 283 282 281 280 279 279 279 280 281 282 282 283 283 283 283 282
284 283 282 281 280 279 277 276 275 274 273 273 272 271 270 270 269 268 267 266 265 264 263 262 261 260 259 258 257 256 256 256 255 254 254 254 255 255 257 258 259 261 262 264 265 267 268 270 271 273 274 276 277 279 281 282 284 285 287 288 289 289 290 290 290 290 289 288 287 285 284 282 281 280 279 279 279 279 280 281 282 283 283 283 283 283
283 282 282 281 279 278 277 276 274 274 273 272 271 271 270 269 268 267 266 265 264 263 262 261 260 259 257 256 255 255 254 254 254 254 254 254 255 256 257 258 260 261 262 263 265 267 268 269 271 272 274 275 277 279 280 282 284 285 286 287 288 289 289 290 290 290 289 288 287 286 284 283 281 280 279 279 278 279 280 281 282 282 283 283 283 283
282 282 281 280 279 278 277 275 274 273 272 272 271 270 270 269 268 267 266 265 264 263 261 260 259 258 256 255 254 253 253 253 253 253 253 254 255 256 257 258 260 261 262 263 265 266 267 269 270 272 273 275 277 278 280 282 283 285 286 287 288 288 289 289 289 289 289 288 287 286 285 283 281 280 279 278 278 278 279 280 281 282 283 283 283 283
282 281 280 279 278 277 276 275 274 273 272 271 270 269 269 268 267 266 265 264 263 262 260 259 258 257 255 254 253 253 252 253 253 253 254 254 255 256 257 259 260 261 262 263 264 265 267 268 270 271 273 275 277 278 280 281 283 284 286 287 288 288 289 289 289 289 289 289 288 287 285 283 282 280 279 278 278 278 278 279 280 281 282 283 283 283
281 280 279 279 278 277 276 275 274 272 271 270 269 268 267 267 266 265 264 263 262 260 259 258 257 256 255 254 253 253 253 253 253 253 254 255 256 256 258 259 260 261 262 263 264 265 266 268 269 271 272 274 276 278 279 281 282 284 285 286 287 288 288 289 289 290 289 289 288 287 285 284 282 280 279 278 277 277 278 278 279 280 281 282 282 283
280 279 279 278 277 276 275 274 273 272 270 269 268 267 266 265 264 263 263 261 260 259 258 257 256 255 254 253 253 253 253 253 253 254 254 255 256 257 258 259 260 261 262 263 264 265 266 267 269 270 272 274 276 277 279 280 282 283 284 285 286 287 288 288 289 289 290 289 288 287 286 284 282 281 279 278 277 277 277 277 278 279 280 281 282 282
279 279 278 277 277 276 275 274 273 271 270 268 267 266 265 264 263 262 261 260 259 258 257 256 255 254 254 253 253 253 253 253 254 254 255 256 256 257 258 259 260 261 262 263 264 265 266 267 269 270 272 274 275 277 278 280 282 283 284 285 286 287 288 288 289 289 289 289 288 287 286 284 282 281 279 278 277 277 276 277 277 278 279 280 281 282
279 278 277 277 276 275 274 273 272 271 269 268 267 265 264 263 262 261 260 259 258 257 256 255 255 254 253 253 253 253 253 254 254 255 255 256 257 258 259 260 260 261 262 263 264 265 267 268 269 271 272 274 275 277 278 280 281 283 284 284 285 286 287 288 289 289 289 289 288 287 285 284 282 281 279 278 277 276 276 276 276 277 278 279 280 281
278 277 277 276 275 274 273 273 272 270 269 268 267 265 264 263 262 261 259 259 258 257 256 255 255 254 253 253 253 253 254 254 255 255 256 256 257 258 259 260 261 262 263 264 265 266 267 268 270 271 272 274 275 276 278 279 281 282 283 284 285 285 286 287 288 289 289 289 288 287 285 284 282 281 279 278 277 276 275 275 276 276 277 278 279 280
277 276 276 275 274 274 273 272 271 270 269 268 267 265 264 263 262 261 259 258 258 257 256 255 254 254 253 253 253 253 253 254 255 255 256 257 258 258 259 260 261 262 263 264 265 266 268 269 270 272 273 274 275 276 277 279 280 282 283 283 284 285 286 287 288 288 288 288 287 286 285 283 282 280 279 278 277 276 275 275 275 276 277 278 279 280
276 276 275 275 274 273 273 272 271 270 269 268 267 266 265 263 262 261 260 259 258 257 256 255 254 254 253 253 253 253 253 254 255 256 256 257 258 259 260 261 262 263 264 265 266 267 268 269 270 272 273 274 275 276 277 278 280 281 282 283 284 285 286 286 287 288 288 288 287 286 285 283 281 280 278 277 276 275 275 274 275 275 276 277 278 279
275 275 275 275 274 273 273 272 270 269 268 268 267 266 265 264 262 261 260 259 258 257 256 256 255 254 254 253 254 254 254 255 256 256 257 258 259 260 261 261 262 263 264 265 266 267 268 269 271 272 273 274 275 276 278 278 279 280 281 282 283 284 285 286 287 287 287 287 286 285 284 283 281 280 278 277 276 275 274 274 274 275 275 277 278 279
275 275 275 274 274 274 273 272 271 270 268 268 267 266 265 264 263 262 261 260 259 258 257 256 256 255 255 254 254 255 255 256 257 258 258 259 260 261 262 263 263 264 265 266 267 268 269 270 270 271 273 274 275 277 278 279 279 280 281 282 283 283 284 285 286 287 287 286 285 284 283 282 281 279 278 277 276 275 274 274 274 274 275 276 277 278
274 274 274 274 273 273 273 272 271 270 269 268 267 266 265 265 264 263 262 261 260 259 259 258 257 257 256 256 256 256 257 257 258 259 260 261 262 262 263 263 264 265 265 266 267 268 269 270 271 272 272 274 275 276 278 279 279 280 281 281 282 283 284 285 285 285 286 285 284 283 282 281 280 279 278 277 276 275 274 274 273 274 275 275 276 277
273 273 272 272 272 272 272 272 271 270 270 269 267 267 266 265 264 263 263 262 261 261 260 260 259 259 258 258 258 258 259 259 260 260 261 262 262 263 264 264 265 265 266 267 267 268 269 270 271 272 273 274 275 276 278 279 280 280 280 281 281 282 283 284 284 284 284 284 283 282 281 280 279 278 278 277 276 275 274 274 274 274 274 275 276 277
Height
10573 10570 10567 10565 10563 10560 10557 10555 10554 10552 10550 10548 10546 10545 10543 10541 10538 10536 10535 10534 10531 10530 10528 10526 10524 10523 10521 10519 10518 10516 10515 10513 10512 10511 10510 10508 10506 10505 10503 10501 10500 10498 10497 10496 10495 10493 10492 10491 10490 10489 10488 10486 10485 10484 10483 10482 10481 10480 10479 10478 10477 10476 10475 10474 10473 10472 10471 10470 10470 10468 10468 10467 10466 10465 10464 10463 10462 10461 10461 10460 10460 10459 10458 10458 10457 10456
10566 10563 10560 10558 10556 10554 10551 10548 10547 10546 10544 10542 10540 10538 10536 10535 10532 10530 10529 10527 10525 10523 10521 10520 10518 10516 10515 10513 10511 10510 10508 10506 10506 10505 10503 10502 10501 10499 10498 10496 10495 10493 10492 10491 10490 10489 10488 10486 10485 10484 10483 10482 10481 10480 10479 10478 10477 10476 10475 10474 10473 10473 10471 10471 10470 10469 10468 10467 10466 10465 10465 10464 10463 10462 10461 10460 10460 10459 10458 10458 10457 10456 10456 10455 10455 10454
10560 10556 10553 10551 10549 10547 10545 10542 10540 10539 10538 10536 10534 10532 10530 10528 10526 10524 10523 10521 10519 10517 10515 10513 10513 10511 10510 10508 10506 10504 10502 10501 10500 10498 10498 10496 10495 10494 10492 10491 10490 10488 10487 10486 10485 10484 10483 10482 10481 10480 10479 10478 10476 10476 10475 10474 10473 10472 10471 10471 10470 10469 10468 10467 10466 10465 10465 10463 10463 10462 10461 10461 10460 10459 10458 10457 10456 10456 10456 10455 10455 10454 10453 10453 10452 10451
10554 10551 10547 10544 10542 10540 10538 10536 10534 10533 10531 10530 10528 10525 10523 10521 10520 10518 10516 10515 10513 10510 10509 10508 10507 10505 10503 10502 10500 10498 10497 10495 10494 10493 10492 10491 10490 10488 10487 10486 10484 10483 10482 10481 10480 10479 10478 10477 10476 10475 10475 10473 10473 10471 10471 10470 10469 10468 10468 10467 10466 10465 10465 10463 10463 10461 10461 10460 10460 10459 10458 10458 10456 10456 10455 10455 10454 10453 10453 10453 10452 10451 10451 10450 10450 10450
10548 10545 10541 10538 10535 10533 10530 10529 10528 10526 10525 10523 10521 10519 10517 10515 10513 10511 10510 10508 10506 10505 10503 10502 10501 10500 10498 10496 10495 10493 10491 10490 10489 10488 10486 10485 10484 10483 10482 10480 10479 10478 10477 10476 10475 10475 10474 10473 10472 10471 10470 10469 10468 10468 10467 10466 10465 10465 10464 10463 10462 10461 10461 10460 10459 10458 10458 10457 10456 10456 10455 10455 10454 10453 10453 10452 10451 10451 10450 10450 10450 10449 10448 10448 10448 10447
10540 10538 10535 10531 10528 10526 10524 10523 10521 10520 10518 10516 10514 10512 10510 10509 10507 10505 10503 10502 10500 10499 10497 10496 10495 10493 10491 10490 10490 10488 10486 10485 10483 10482 10481 10480 10479 10478 10477 10475 10474 10473 10472 10471 10471 10470 10469 10468 10468 10466 10466 10465 10465 10463 10463 10462 10461 10461 10460 10460 10459 10458 10457 10456 10456 10455 10455 10454 10453 10453 10452 10451 10451 10450 10450 10449 10448 10448 10448 10447 10447 10446 10446 10446 10445 10445
10533 10530 10528 10525 10522 10520 10518 10516 10515 10513 10511 10509 10506 10505 10504 10502 10501 10500 10498 10496 10495 10493 10491 10490 10488 10487 10486 10485 10484 10482 10481 10480 10478 10477 10476 10475 10474 10473 10472 10470 10470 10468 10468 10467 10466 10465 10465 10464 10463 10463 10461 10461 10460 10460 10459 10458 10458 10457 10456 10456 10455 10455 10453 10453 10452 10451 10451 10451 10450 10450 10449 10448 10448 10448 10447 10446 10446 10446 10445 10445 10445 10444 10444 10443 10443 10443
10526 10523 10520 10518 10516 10513 10511 10509 10508 10507 10505 10503 10500 10498 10496 10495 10494 10493 10491 10490 10488 10487 10486 10484 10483 10481 10480 10479 10478 10476 10475 10474 10473 10472 10471 10470 10469 10468 10467 10466 10465 10464 10463 10462 10461 10461 10460 10460 10459 10458 10458 10457 10456 10456 10455 10455 10454 10453 10453 10452 10451 10451 10450 10450 10449 10448 10448 10447 10447 10446 10446 10446 10445 10445 10444 10444 10443 10443 10443 10442 10442 10441 10441 10441 10440 10440
10520 10516 10513 10510 10508 10506 10505 10501 10500 10500 10499 10496 10494 10492 10490 10488 10487 10486 10485 10484 10483 10481 10480 10478 10476 10475 10474 10473 10473 10471 10470 10469 10468 10466 10465 10465 10464 10463 10462 10461 10460 10459 10458 10458 10457 10456 10456 10455 10455 10455 10454 10453 10453 10452 10451 10451 10450 10450 10449 10448 10448 10447 10446 10446 10445 10445 10445 10444 10444 10443 10443 10443 10442 10442 10441 10441 10441 10440 10440 10440 10440 10439 10439 10438 10438 10438
10512 10510 10506 10503 10501 10500 10498 10495 10493 10492 10491 10490 10488 10486 10485 10483 10481 10479 10478 10476 10476 10475 10474 10473 10471 10470 10468 10467 10466 10466 10465 10463 10462 10461 10461 10460 10459 10458 10457 10456 10455 10455 10454 10453 10453 10452 10451 10451 10451 10450 10450 10450 10449 10448 10448 10448 10447 10446 10446 10445 10445 10444 10443 10443 10442 10441 10441 10441 10441 10440 10440 10440 10439 10439 10438 10438 10438 10438 10437 10437 10436 10436 10436 10436 10435 10435
10504 10501 10500 10497 10495 10493 10491 10489 10487 10486 10485 10483 10481 10479 10478 10477 10475 10473 10471 10470 10469 10468 10468 10466 10465 10464 10463 10461 10461 10460 10460 10458 10457 10456 10456 10455 10454 10453 10452 10451 10451 10450 10450 10449 10448 10448 10448 10447 10446 10446 10446 10446 10445 10445 10445 10444 10443 10443 10442 10441 10441 10440 10440 10440 10439 10438 10438 10438 10438 10437 10437 10436 10436 10436 10436 10435 10435 10435 10435 10435 10434 10434 10433 10433 10433 10433
10496 10494 10492 10490 10488 10486 10484 10482 10481 10479 10478 10476 10474 10472 10471 10470 10470 10468 10465 10463 10462 10462 10461 10460 10460 10458 10458 10456 10455 10455 10454 10453 10451 10451 10450 10450 10449 10448 10448 10447 10446 10446 10445 10445 10444 10444 10443 10443 10443 10443 10442 10442 10441 10441 10441 10440 10440 10439 10439 10438 10438 10437 10436 10436 10436 10435 10435 10435 10435 10434 10434 10433 10433 10433 10433 10433 10432 10432 10432 10431 10431 10431 10431 10431 10430 10430
10488 10487 10485 10483 10481 10479 10477 10475 10473 10472 10471 10469 10468 10466 10464 10463 10463 10461 10460 10458 10456 10456 10455 10454 10453 10453 10452 10451 10450 10449 10448 10447 10446 10446 10445 10445 10444 10443 10443 10442 10441 10441 10441 10440 10440 10440 10440 10440 10439 10439 10438 10438 10438 10438 10437 10436 10436 10436 10435 10435 10435 10434 10433 10433 10433 10432 10432 10431 10431 10431 10431 10431 10430 10430 10430 10430 10430 10430 10429 10429 10429 10428 10428 10428 10428 10428
10481 10480 10478 10476 10474 10472 10470 10469 10467 10465 10463 10463 10461 10460 10458 10457 10456 10455 10453 10451 10450 10450 10450 10448 10447 10446 10446 10445 10445 10444 10443 10442 10441 10440 10440 10440 10439 10439 10438 10438 10437 10437 10437 10436 10436 10436 10436 10436 10435 10435 10435 10435 10435 10434 10433 10433 10433 10432 10432 10431 10431 10431 10430 10430 10430 10429 10429 10429 10428 10428 10428 10428 10428 10427 10427 10427 10426 10426 10426 10426 10426 10426 10426 10425 10425 10425
10475 10473 10471 10469 10467 10465 10463 10462 10460 10458 10457 10456 10455 10454 10452 10451 10450 10448 10447 10446 10445 10444 10443 10442 10441 10440 10440 10440 10439 10438 10438 10437 10436 10435 10435 10435 10435 10435 10434 10433 10433 10433 10433 10433 10432 10432 10432 10432 10431 10431 10431 10431 10431 10430 10430 10430 10430 10429 10428 10428 10428 10427 10427 10426 10426 10426 10426 10426 10425 10425 10425 10425 10425 10425 10424 10424 10424 10424 10423 10423 10423 10423 10423 10423 10423 10422
10468 10466 10464 10462 10460 10458 10456 10455 10454 10452 10451 10450 10449 10448 10446 10445 10443 10442 10441 10440 10438 10438 10437 10436 10435 10435 10434 10434 10434 10433 10433 10431 10431 10430 10430 10430 10430 10430 10430 10430 10429 10428 10429 10429 10428 10428 10428 10428 10428 10428 10428 10428 10428 10427 10427 10426 10426 10426 10425 10425 10425 10424 10424 10423 10423 10423 10423 10423 10422 10422 10422 10421 10421 10421 10421 10421 10421 10421 10421 10421 10420 10420 10420 10420 10420 10420
10461 10459 10457 10455 10453 10451 10450 10448 10447 10446 10444 10443 10442 10441 10440 10438 10437 10436 10435 10434 10433 10432 10431 10431 10430 10430 10428 10428 10428 10428 10428 10427 10426 10426 10426 10425 10425 10425 10426 10425 10425 10425 10425 10425 10425 10425 10425 10425 10425 10425 10425 10424 10424 10424 10423 10423 10423 10423 10422 10421 10421 10421 10421 10420 10420 10420 10420 10420 10419 10419 10419 10419 10418 10418 10418 10418 10418 10418 10418 10418 10418 10418 10418 10417 10417 10417
10454 10452 10450 10448 10446 10445 10443 10441 10440 10439 10438 10436 10435 10435 10433 10432 10431 10430 10429 10428 10427 10426 10425 10425 10425 10424 10424 10423 10422 10422 10423 10423 10421 10421 10421 10421 10421 10421 10421 10421 10421 10421 10421 10421 10421 10421 10421 10421 10421 10421 10421 10421 10421 10421 10420 10420 10420 10420 10419 10418 10418 10418 10418 10417 10417 10416 10416 10416 10416 10416 10416 10416 10416 10416 10415 10415 10415 10415 10415 10415 10415 10415 10415 10415 10415 10415
10446 10445 10443 10441 10440 10438 10436 10435 10434 10433 10431 10430 10429 10428 10427 10426 10425 10424 10423 10422 10421 10421 10420 10420 10419 10418 10419 10418 10418 10418 10418 10418 10417 10416 10416 10416 10417 10417 10418 10418 10417 10417 10417 10417 10418 10418 10418 10418 10418 10418 10418 10418 10418 10417 10417 10417 10416 10416 10416 10415 10415 10415 10415 10414 10414 10413 10413 10413 10413 10413 10413 10413 10413 10413 10413 10413 10412 10412 10412 10412 10412 10412 10412 10412 10412 10411
10440 10438 10436 10435 10433 10431 10430 10428 10427 10426 10425 10423 10423 10422 10421 10420 10420 10418 10418 10417 10416 10415 10415 10415 10414 10413 10414 10414 10413 10413 10413 10413 10413 10412 10413 10413 10413 10413 10413 10414 10413 10413 10413 10413 10414 10414 10415 10415 10415 10415 10415 10415 10414 10414 10414 10414 10413 10413 10413 10412 10412 10411 10411 10411 10411 10411 10410 10410 10410 10410 10410 10410 10410 10410 10410 10410 10410 10410 10410 10409 10409 10409 10409 10409 10409 10409
10433 10431 10430 10429 10427 10425 10423 10422 10421 10420 10418 10417 10416 10416 10415 10415 10414 10413 10412 10411 10411 10410 10410 10410 10410 10409 10409 10409 10409 10408 10409 10409 10408 10408 10408 10409 10409 10409 10410 10410 10410 10410 10410 10410 10410 10411 10411 10411 10411 10411 10411 10411 10411 10411 10411 10410 10410 10410 10410 10409 10409 10408 10408 10408 10408 10408 10407 10407 10407 10407 10406 10406 10406 10406 10406 10406 10406 10406 10406 10406 10406 10406 10406 10406 10406 10406
10426 10425 10424 10423 10421 10419 10417 10416 10414 10413 10412 10411 10410 10410 10409 10409 10408 10408 10406 10406 10406 10405 10405 10405 10405 10405 10405 10405 10405 10405 10405 10405 10405 10404 10405 10405 10405 10405 10406 10406 10406 10406 10406 10406 10407 10407 10408 10408 10408 10408 10408 10408 10408 10408 10408 10408 10407 10407 10406 10406 10406 10406 10405 10405 10405 10405 10404 10404 10404 10404 10403 10403 10403 10403 10403 10403 10403 10403 10403 10403 10403 10403 10403 10403 10403 10403
10420 10418 10417 10416 10415 10413 10411 10410 10408 10407 10406 10406 10405 10405 10404 10404 10403 10402 10401 10401 10401 10401 10401 10401 10400 10400 10400 10400 10400 10400 10400 10400 10400 10400 10401 10401 10401 10401 10403 10403 10403 10403 10403 10403 10403 10404 10404 10404 10405 10405 10405 10405 10405 10405 10405 10405 10404 10404 10403 10403 10403 10403 10402 10402 10401 10401 10401 10401 10401 10401 10400 10400 10400 10400 10400 10400 10400 10400 10400 10400 10400 10400 10400 10400 10400 10400
10414 10412 10411 10410 10408 10406 10405 10404 10403 10401 10401 10400 10400 10400 10399 10398 10398 10398 10397 10397 10397 10396 10396 10396 10396 10396 10396 10396 10396 10396 10396 10396 10397 10397 10397 10397 10398 10398 10398 10399 10400 10399 10399 10400 10400 10400 10401 10401 10401 10401 10401 10401 10401 10401 10401 10401 10401 10401 10400 10400 10400 10400 10399 10399 10399 10398 10398 10398 10398 10398 10397 10397 10397 10397 10397 10397 10397 10397 10397 10397 10397 10396 10396 10396 10396 10396
10408 10406 10405 10404 10402 10401 10400 10398 10397 10396 10396 10395 10395 10395 10395 10394 10393 10393 10393 10393 10393 10392 10392 10392 10392 10391 10391 10392 10392 10392 10393 10393 10393 10393 10393 10393 10394 10395 10395 10396 10396 10396 10396 10396 10396 10397 10397 10397 10398 10398 10398 10398 10398 10398 10398 10398 10398 10398 10398 10397 10396 10396 10396 10396 10396 10395 10395 10395 10395 10394 10394 10394 10394 10393 10393 10393 10393 10393 10393 10393 10393 10393 10393 10393 10393 10393
10401 10400 10399 10398 10396 10395 10395 10393 10392 10391 10391 10391 10391 10391 10390 10390 10389 10388 10388 10388 10388 10388 10388 10388 10388 10388 10388 10388 10388 10388 10389 10389 10390 10390 10390 10390 10390 10391 10391 10392 10392 10392 10392 10393 10393 10393 10394 10394 10394 10395 10395 10395 10395 10395 10395 10395 10395 10395 10395 10394 10393 10393 10393 10393 10392 10392 10392 10391 10391 10391 10391 10391 10390 10390 10390 10390 10390 10390 10390 10390 10390 10390 10390 10390 10390 10390
10396 10395 10393 10392 10391 10390 10389 10388 10387 10386 10386 10386 10386 10386 10386 10386 10385 10384 10383 10383 10383 10384 10383 10383 10383 10384 10384 10385 10385 10385 10385 10386 10386 10386 10386 10386 10387 10387 10388 10388 10389 10389 10389 10390 10390 10390 10390 10390 10391 10391 10391 10391 10391 10391 10392 10391 10391 10391 10391 10391 10390 10390 10390 10390 10389 10389 10388 10388 10388 10388 10388 10387 10387 10387 10387 10386 10386 10386 10386 10386 10386 10386 10386 10386 10386 10386
10390 10389 10388 10387 10386 10385 10384 10383 10382 10381 10381 10381 10381 10381 10381 10381 10381 10380 10379 10380 10380 10380 10380 10380 10380 10380 10380 10380 10381 10381 10381 10382 10382 10383 10383 10383 10383 10383 10384 10385 10385 10386 10386 10386 10386 10387 10387 10387 10388 10388 10388 10388 10388 10388 10388 10388 10388 10388 10388 10388 10387 10387 10386 10386 10386 10385 10385 10385 10385 10384 10384 10384 10384 10383 10383 10383 10383 10383 10383 10383 10383 10383 10383 10383 10383 10382
10385 10383 10383 10382 10381 10380 10379 10378 10377 10376 10376 10376 10376 10376 10376 10376 10376 10376 10375 10375 10376 10376 10375 10375 10376 10376 10376 10376 10377 10377 10378 10378 10378 10379 10380 10380 10380 10380 10380 10381 10381 10382 10383 10383 10383 10383 10384 10384 10384 10385 10385 10385 10385 10385 10385 10385 10385 10385 10385 10384 10384 10383 10383 10383 10382 10382 10381 10381 10381 10381 10381 10380 10380 10380 10380 10380 10380 10380 10380 10380 10380 10379 10379 10379 10379 10378
10379 10378 10378 10377 10376 10375 10375 10373 10373 10372 10372 10372 10372 10372 10372 10372 10372 10371 10371 10371 10371 10371 10371 10371 10371 10372 10373 10373 10373 10373 10374 10374 10375 10375 10376 10376 10376 10376 10377 10378 10378 10378 10379 10380 10380 10380 10380 10380 10381 10381 10381 10381 10381 10381 10381 10381 10381 10381 10381 10381 10380 10380 10380 10379 10379 10378 10378 10378 10377 10377 10377 10377 10376 10376 10376 10376 10376 10376 10376 10376 10376 10375 10375 10375 10375 10375
10374 10373 10373 10372 10371 10371 10370 10369 10368 10368 10368 10368 10368 10368 10368 10368 10368 10368 10367 10367 10367 10368 10368 10368 10368 10368 10368 10369 10370 10370 10370 10370 10371 10372 10373 10373 10373 10373 10373 10374 10374 10375 10375 10376 10376 10376 10376 10376 10377 10378 10378 10378 10378 10378 10378 10378 10378 10378 10377 10377 10376 10376 10376 10376 10375 10375 10374 10374 10373 10373 10373 10373 10373 10373 10373 10373 10373 10372 10372 10372 10372 10371 10371 10371 10371 10371
10369 10368 10368 10367 10366 10366 10365 10365 10364 10364 10363 10363 10363 10363 10363 10363 10363 10363 10363 10363 10363 10363 10363 10363 10364 10364 10365 10365 10365 10366 10366 10366 10368 10368 10369 10369 10369 10370 10370 10370 10371 10371 10371 10372 10373 10373 10373 10373 10373 10373 10374 10374 10374 10374 10375 10374 10374 10374 10373 10373 10373 10373 10372 10372 10371 10371 10370 10370 10370 10370 10370 10370 10369 10369 10369 10369 10368 10368 10368 10368 10368 10368 10368 10368 10367 10367
10364 10363 10363 10363 10362 10361 10361 10361 10360 10360 10359 10359 10359 10358 10359 10359 10359 10359 10359 10359 10360 10360 10360 10360 10360 10360 10361 10361 10361 10362 10363 10363 10364 10365 10366 10366 10366 10366 10366 10367 10367 10368 10368 10368 10369 10369 10369 10369 10369 10370 10370 10370 10370 10371 10371 10371 10370 10370 10370 10370 10370 10369 10368 10368 10368 10367 10366 10366 10366 10366 10366 10365 10365 10365 10365 10365 10365 10365 10365 10365 10364 10364 10364 10363 10363 10363
10360 10359 10358 10358 10358 10357 10356 10356 10356 10356 10355 10355 10355 10355 10355 10355 10355 10355 10355 10355 10355 10356 10356 10356 10356 10356 10356 10357 10358 10358 10359 10360 10360 10361 10362 10362 10362 10363 10363 10363 10364 10364 10365 10365 10365 10365 10365 10366 10366 10366 10366 10366 10366 10367 10367 10366 10366 10366 10366 10366 10366 10365 10365 10365 10364 10363 10363 10363 10362 10362 10361 10361 10361 10361 10361 10361 10361 10361 10361 10360 10360 10360 10360 10360 10360 10359
10355 10355 10354 10353 10353 10353 10352 10352 10352 10351 10351 10351 10351 10351 10351 10351 10351 10351 10351 10351 10351 10351 10352 10352 10352 10353 10353 10353 10354 10355 10355 10356 10356 10358 10358 10359 10359 10359 10360 10360 10360 10361 10361 10361 10361 10361 10362 10362 10362 10362 10362 10362 10362 10363 10363 10363 10363 10363 10363 10362 10362 10361 10361 10361 10360 10360 10359 10358 10358 10358 10358 10358 10358 10357 10357 10357 10357 10356 10356 10356 10356 10356 10356 10356 10355 10355
10351 10350 10350 10349 10348 10348 10348 10348 10348 10348 10347 10347 10347 10346 10346 10347 10347 10347 10347 10348 10348 10348 10348 10348 10348 10349 10350 10350 10350 10351 10351 10352 10353 10355 10355 10355 10356 10356 10356 10356 10356 10357 10358 10358 10358 10358 10358 10358 10358 10358 10359 10358 10358 10358 10359 10359 10360 10359 10359 10358 10358 10358 10357 10357 10356 10356 10355 10355 10355 10354 10354 10354 10353 10353 10353 10353 10353 10353 10353 10353 10352 10352 10352 10351 10351 10351
10346 10346 10345 10345 10345 10344 10344 10343 10343 10343 10343 10343 10343 10343 10343 10343 10343 10343 10343 10343 10344 10344 10344 10345 10345 10345 10346 10346 10347 10347 10348 10348 10350 10351 10351 10351 10352 10352 10352 10353 10353 10354 10354 10354 10354 10355 10355 10355 10355 10355 10355 10355 10355 10355 10355 10355 10355 10355 10355 10355 10355 10354 10353 10353 10353 10352 10351 10351 10350 10350 10350 10350 10350 10349 10349 10349 10349 10349 10348 10348 10348 10348 10348 10348 10347 10347
10342 10341 10341 10340 10340 10340 10340 10340 10340 10340 10339 10339 10339 10339 10339 10340 10340 10340 10340 10340 10340 10340 10341 10341 10341 10341 10342 10343 10343 10344 10344 10345 10346 10346 10347 10348 10348 10349 10349 10349 10350 10350 10350 10350 10350 10351 10351 10351 10351 10351 10351 10351 10351 10351 10351 10351 10351 10351 10351 10351 10351 10350 10350 10349 10348 10348 10348 10347 10346 10346 10346 10346 10345 10345 10345 10345 10345 10345 10345 10345 10345 10344 10344 10343 10343 10343
10338 10338 10337 10336 10336 10336 10336 10335 10335 10335 10335 10335 10335 10335 10336 10336 10336 10336 10336 10336 10336 10336 10337 10337 10338 10338 10338 10339 10340 10340 10341 10341 10342 10343 10343 10344 10345 10345 10345 10345 10346 10346 10346 10347 10347 10347 10347 10347 10347 10347 10347 10347 10347 10347 10347 10347 10347 10347 10347 10346 10346 10346 10346 10345 10345 10344 10343 10343 10343 10342 10342 10341 10341 10341 10341 10341 10341 10341 10341 10340 10340 10340 10340 10340 10339 10339
10334 10333 10333 10332 10332 10332 10331 10331 10331 10331 10331 10331 10331 10331 10332 10332 10332 10332 10332 10333 10333 10333 10333 10334 10334 10335 10335 10335 10336 10336 10337 10338 10338 10339 10340 10340 10341 10341 10341 10342 10342 10342 10343 10343 10343 10343 10343 10343 10343 10343 10343 10343 10343 10343 10343 10343 10343 10343 10343 10343 10342 10341 10341 10341 10340 10340 10340 10339 10338 10338 10338 10337 10337 10337 10336 10336 10336 10336 10336 10336 10336 10336 10336 10335 10335 10335
10330 10330 10329 10328 10328 10328 10328 10328 10328 10328 10328 10328 10328 10328 10328 10328 10328 10328 10328 10329 10329 10330 10330 10330 10331 10331 10331 10332 10332 10333 10333 10334 10335 10335 10336 10336 10337 10338 10338 10338 10338 10338 10338 10339 10339 10339 10340 10340 10340 10340 10340 10340 10339 10339 10339 10339 10339 10340 10339 10338 10338 10337 10337 10336 10336 10336 10335 10335 10335 10334 10333 10333 10333 10333 10333 10333 10333 10333 10333 10332 10332 10331 10331 10331 10331 10330
10326 10326 10325 10325 10325 10325 10324 10324 10324 10324 10324 10324 10323 10323 10324 10324 10324 10325 10325 10325 10325 10326 10326 10327 10327 10327 10328 10328 10328 10329 10330 10330 10331 10331 10332 10333 10333 10333 10334 10334 10334 10335 10335 10335 10335 10335 10335 10336 10335 10335 10335 10335 10335 10335 10335 10335 10335 10335 10335 10335 10334 10333 10333 10332 10332 10331 10331 10330 10330 10330 10330 10329 10328 10328 10328 10328 10328 10328 10328 10328 10328 10328 10327 10327 10326 10326
10322 10321 10321 10321 10321 10321 10321 10320 10320 10320 10320 10320 10320 10320 10320 10320 10320 10321 10321 10321 10321 10322 10323 10323 10323 10324 10324 10324 10325 10325 10326 10326 10327 10328 10328 10328 10329 10330 10330 10330 10330 10330 10331 10331 10330 10331 10331 10331 10331 10331 10331 10331 10331 10331 10331 10331 10331 10331 10331 10330 10330 10329 10328 10327 10327 10328 10327 10326 10326 10325 10325 10325 10324 10324 10324 10324 10324 10324 10324 10324 10324 10323 10323 10323 10323 10322
10318 10318 10318 10317 10317 10317 10317 10316 10316 10316 10316 10316 10316 10316 10316 10316 10316 10317 10317 10317 10318 10318 10319 10319 10320 10320 10320 10320 10321 10321 10322 10323 10323 10324 10324 10325 10325 10325 10325 10326 10326 10326 10326 10326 10326 10326 10326 10327 10327 10327 10328 10327 10327 10327 10326 10327 10326 10326 10326 10326 10325 10325 10323 10323 10323 10323 10323 10322 10321 10321 10321 10320 10320 10320 10320 10320 10320 10320 10320 10320 10320 10319 10319 10319 10318 10318
10315 10314 10314 10313 10313 10313 10313 10313 10313 10313 10313 10313 10312 10312 10312 10313 10313 10313 10313 10313 10314 10314 10315 10315 10316 10316 10316 10316 10317 10318 10318 10318 10319 10320 10320 10320 10321 10321 10321 10321 10321 10322 10322 10322 10322 10322 10323 10323 10323 10323 10323 10323 10323 10323 10323 10323 10323 10322 10322 10321 10321 10320 10319 10319 10319 10318 10318 10317 10317 10316 10316 10316 10316 10315 10315 10315 10315 10315 10315 10315 10315 10315 10315 10315 10314 10314
10311 10310 10310 10310 10310 10310 10309 10309 10309 10309 10309 10309 10308 10308 10309 10309 10309 10309 10310 10310 10310 10310 10311 10311 10311 10312 10312 10313 10313 10313 10314 10314 10315 10315 10316 10316 10316 10316 10317 10317 10318 10318 10318 10318 10318 10318 10318 10318 10318 10318 10318 10318 10318 10318 10318 10319 10318 10318 10317 10317 10316 10315 10315 10315 10315 10314 10314 10313 10312 10312 10311 10311 10311 10311 10310 10310 10310 10310 10310 10310 10310 10310 10310 10310 10310 10310
10307 10306 10306 10306 10306 10306 10305 10305 10305 10305 10305 10305 10305 10305 10305 10305 10305 10305 10305 10306 10306 10306 10306 10307 10308 10308 10308 10308 10309 10310 10310 10310 10310 10310 10311 10311 10312 10313 10313 10313 10313 10313 10313 10314 10314 10314 10314 10314 10314 10314 10314 10313 10313 10313 10313 10314 10315 10314 10313 10312 10311 10311 10310 10310 10310 10310 10310 10309 10308 10307 10307 10306 10306 10306 10305 10305 10305 10305 10306 10306 10306 10306 10306 10306 10305 10305
10303 10303 10302 10302 10302 10301 10301 10301 10301 10301 10301 10301 10301 10301 10301 10301 10301 10301 10301 10301 10302 10302 10303 10303 10303 10303 10304 10304 10305 10305 10305 10305 10305 10306 10306 10307 10308 10308 10308 10309 10309 10309 10309 10310 10310 10310 10310 10310 10310 10310 10309 10309 10308 10308 10308 10309 10310 10310 10308 10308 10307 10306 10306 10305 10305 10305 10305 10304 10303 10303 10302 10301 10301 10301 10300 10300 10300 10301 10301 10301 10301 10301 10301 10301 10301 10301
10300 10299 10298 10298 10298 10298 10298 10298 10298 10298 10297 10297 10297 10297 10297 10298 10298 10298 10298 10298 10298 10298 10298 10298 10299 10299 10300 10300 10300 10301 10301 10301 10301 10301 10301 10302 10303 10303 10304 10304 10305 10305 10305 10305 10305 10305 10305 10305 10305 10305 10305 10305 10304 10303 10303 10304 10305 10305 10304 10303 10303 10302 10301 10301 10301 10301 10301 10300 10299 10298 10298 10297 10296 10296 10296 10295 10295 10295 10296 10296 10296 10297 10297 10297 10296 10296
10295 10295 10295 10294 10294 10293 10293 10293 10293 10293 10293 10293 10293 10293 10293 10293 10293 10293 10293 10294 10294 10294 10294 10295 10295 10295 10295 10295 10296 10296 10296 10296 10296 10297 10297 10298 10298 10299 10299 10299 10299 10300 10299 10299 10300 10300 10300 10299 10299 10299 10300 10300 10300 10299 10299 10299 10299 10299 10299 10298 10298 10298 10297 10297 10296 10296 10296 10295 10295 10293 10293 10292 10291 10291 10291 10290 10290 10290 10290 10291 10292 10293 10293 10293 10292 10291
10291 10290 10290 10290 10290 10289 10289 10289 10289 10289 10289 10289 10289 10289 10288 10288 10288 10289 10289 10290 10290 10290 10290 10290 10290 10290 10290 10291 10291 10291 10292 10292 10292 10292 10293 10293 10293 10294 10294 10294 10294 10294 10294 10294 10294 10294 10294 10294 10293 10293 10293 10295 10295 10295 10295 10294 10293 10293 10293 10293 10293 10293 10293 10293 10292 10292 10292 10291 10290 10289 10288 10287 10286 10286 10286 10285 10285 10285 10285 10286 10287 10288 10288 10288 10288 10286